weather.gov     
National Weather Service

Regional Weather Roundup
NWS Homepage
This page is being discontinued on March 12, 2014.
The same data is available at this site. Please update your bookmarks.
Thank you, and we apologize for the inconvenience.
Please send an email to SR-SRH.Webmaster@noaa.gov with any concerns.


Current Version
Previous Version:    01  02  03  04  05  06  07  08  09  10  11  12  13  14  15  16  17  18  19  20  21  22  23  24  25  26  27  28  29  30  
   31  32  33  34  35  36  37  38  39  40  41  42  43  44  45  46  47  48  49  50  51  52  53  
[Printable]
378
ASUS44 KMAF 252310
RWRMAF
MIDLAND AREA WEATHER ROUNDUP
NATIONAL WEATHER SERVICE MIDLAND TX
600 PM CDT SAT OCT 25 2014

...IN SOUTHWEST TEXAS AND SOUTHEAST NEW MEXICO...

CITY           SKY/WX    TMP DP  RH WIND       PRES   REMARKS
ALPINE         SUNNY     80  43  26 SW3       30.24F
ANDREWS        FAIR      83  48  29 S9        30.12S
ARTESIA        NOT AVBL
BIG SPRING     SUNNY     85  45  24 S7        30.11F
CARLSBAD       SUNNY     84  53  34 SE8       30.07F
DRYDEN           N/A     85  52  32 E9        30.07F
FORT STOCKTON  SUNNY     86  47  25 VRB7      30.09F
GUAD PASS      SUNNY     77  44  30 SW18      30.24F
HOBBS          SUNNY     82  46  28 S13       30.13F
MARFA          SUNNY     79  45  29 S5        30.24S
MIDLAND AIRPK  SUNNY     87  47  25 S8        30.09F
MIDLAND INTL   SUNNY     87  48  25 S9        30.09F
ODESSA         SUNNY     86  47  25 SW8       30.10F
PECOS          SUNNY     86  51  30 NE8       30.06F
PRESIDIO       FAIR      87  44  22 SW3       30.09S
SEMINOLE       SUNNY     83  48  29 SW8       30.12S
SNYDER         SUNNY     83  51  33 S5        30.09F
WINK           SUNNY     86  46  24 S6        30.07F
$$
...OTHER STATIONS IN TEXAS...

CITY           SKY/WX    TMP DP  RH WIND       PRES   REMARKS
ABILENE        SUNNY     87  50  27 S9        30.08F
AMARILLO       SUNNY     82  48  30 S13       30.09F
AUSTIN         CLEAR     86  57  37 SE7       30.07S
BROWNSVILLE    SUNNY     80  66  62 E9        30.08S
CORPUS CHRISTI SUNNY     80  64  58 E12       30.08F
DALLAS FTW     CLEAR     86  59  39 S8        30.04F
DEL RIO        SUNNY     86  59  39 SE10      30.05F
EL PASO        SUNNY     85  41  21 VRB5      30.13F
HOUSTON INT    CLEAR     80  58  46 SE5       30.09S
LUBBOCK        SUNNY     83  50  31 S12       30.10F
SAN ANGELO     SUNNY     88  45  22 S9        30.08S
SAN ANTONIO    SUNNY     86  54  33 CALM      30.08F
WACO           CLEAR     84  60  44 S7        30.06F
WICHITA FALLS  NOT AVBL
$$
...OTHER LOCATIONS IN NEW MEXICO...

CITY           SKY/WX    TMP DP  RH WIND       PRES   REMARKS
ALAMAGORDO     NOT AVBL
ALBUQUERQUE    SUNNY     78  31  17 S8        30.19F
CANNON AFB     SUNNY     82  41  23 S13       30.12F
CLOVIS         SUNNY     82  39  21 SW15      30.14S
HOLLOMAN AFB   MOSUNNY   82  40  22 SW6       30.14F
ROSWELL        SUNNY     83  51  33 S10       30.09F
RUIDOSO        SUNNY     72  36  26 SW10      30.32S
SANTA FE       SUNNY     76  25  15 SW15G21   30.22F
TRUTH OR CONSE SUNNY     81  41  24 S10       30.16F
TUCUMCARI      SUNNY     85  42  22 S17       30.06F
$$




U.S. Dept. of Commerce
NOAA National Weather Service
1325 East West Highway
Silver Spring, MD 20910
E-mail: w-nws.webmaster@noaa.gov
Page last modified: May 16, 2007
NATIONAL WEATHER SERVICE: for Safety, for Work, for Fun - FOR LIFE